Location: Bratislava
(48.1500°N, 17.1170°E)
Time: 02:58:54
(UTC+01:00)

Tiangong 2 - Pass Details

Date: 24 January 2019
Orbit: 381 x 390 km, 42.8° (Epoch: 16 February)

Event Time Altitude Azimuth Distance (km) Brightness Sun altitude
Exits shadow 06:44:33 - 254° (WSW) 1,729 3.9 -7.7°
Reaches altitude 10° 06:45:38 10° 241° (WSW) 1,411 3.5 -7.5°
Maximum altitude 06:47:37 16° 203° (SSW) 1,126 3.4 -7.2°
Drops below altitude 10° 06:49:37 10° 163° (SSE) 1,411 4.5 -6.9°
Sets 06:52:15 0° 140° (SE) 2,264 6.2 -6.5°
